Atmospheric History
02/08/2018 18:00  to  2/9/2018 18:00
Change End Date:
To complete the export process:
1) Select all of the data below
2) Copy the data to the clipboard
3) Open a word processor such as Notepad
4) Paste the data into the word processor
5) Save the file

Date/Time (MDT), AirTemp, RH, Dewpoint ,AvgWindSpeed, GustWindSpeed, WindDirection, PrecipType, PrecipIntensity, PrecipAccumulation, PrecipRate
02/09/2018 17:55, -1, 79, -6 ,8, 9, SW, Yes, , ,  
02/09/2018 17:54, -1, 79, -6 ,8, 11, SW, None, None, ,  
02/09/2018 17:45, -1, 79, -6 ,9, 12, SW, None, None, ,  
02/09/2018 17:39, -1, 80, -6 ,9, 11, W, None, None, ,  
02/09/2018 17:35, -1, 79, -6 ,9, 12, SW, None, None, ,  
02/09/2018 17:25, -1, 79, -6 ,11, 15, W, None, None, ,  
02/09/2018 17:24, -1, 79, -6 ,11, 15, W, None, None, ,  
02/09/2018 17:15, -1, 79, -6 ,12, 14, W, None, None, ,  
02/09/2018 17:09, -1, 79, -6 ,13, 14, W, None, None, ,  
02/09/2018 17:05, -1, 80, -5 ,12, 13, W, None, None, ,  
02/09/2018 16:55, -1, 81, -5 ,12, 14, W, None, None, ,  
02/09/2018 16:54, -1, 81, -5 ,12, 14, W, None, None, ,  
02/09/2018 16:45, -1, 80, -5 ,12, 14, W, None, None, ,  
02/09/2018 16:39, 0, 79, -5 ,13, 14, W, None, None, ,  
02/09/2018 16:34, 0, 78, -5 ,13, 14, W, None, None, ,  
02/09/2018 16:24, 0, 79, -5 ,12, 13, W, None, None, ,  
02/09/2018 16:24, 0, 79, -5 ,11, 12, W, None, None, ,  
02/09/2018 16:14, 0, 80, -5 ,10, 12, W, None, None, ,  
02/09/2018 16:09, 0, 79, -5 ,11, 12, W, None, None, ,  
02/09/2018 16:04, 1, 79, -4 ,9, 13, W, None, None, ,  
02/09/2018 15:54, 1, 79, -4 ,11, 12, W, None, None, ,  
02/09/2018 15:54, 1, 78, -5 ,11, 12, W, None, None, ,  
02/09/2018 15:44, 1, 78, -4 ,11, 12, W, None, None, ,  
02/09/2018 15:39, 1, 77, -4 ,11, 12, W, None, None, ,  
02/09/2018 15:34, 1, 78, -4 ,10, 12, W, None, None, ,  
02/09/2018 15:24, 1, 77, -4 ,11, 12, W, None, None, ,  
02/09/2018 15:24, 1, 77, -4 ,11, 12, W, None, None, ,  
02/09/2018 15:14, 1, 78, -4 ,11, 12, W, None, None, ,  
02/09/2018 15:09, 1, 77, -4 ,11, 12, W, None, None, ,  
02/09/2018 15:04, 1, 77, -4 ,9, 11, W, None, None, ,  
02/09/2018 14:54, 1, 77, -4 ,8, 11, SW, None, None, ,  
02/09/2018 14:54, 1, 77, -4 ,8, 11, SW, None, None, ,  
02/09/2018 14:44, 1, 75, -5 ,9, 11, W, None, None, ,  
02/09/2018 14:39, 1, 75, -5 ,9, 11, SW, None, None, ,  
02/09/2018 14:34, 1, 75, -5 ,9, 11, W, None, None, ,  
02/09/2018 14:24, 1, 76, -5 ,9, 11, W, None, None, ,  
02/09/2018 14:24, 1, 76, -5 ,9, 11, W, None, None, ,  
02/09/2018 14:14, 1, 75, -5 ,9, 10, W, None, None, ,  
02/09/2018 14:09, 1, 75, -5 ,9, 10, W, None, None, ,  
02/09/2018 14:04, 1, 75, -5 ,8, 9, W, None, None, ,  
02/09/2018 13:54, 1, 76, -5 ,7, 9, W, None, None, ,  
02/09/2018 13:54, 1, 76, -5 ,7, 9, W, None, None, ,  
02/09/2018 13:44, 1, 75, -5 ,7, 8, W, None, None, ,  
02/09/2018 13:39, 1, 74, -5 ,7, 8, W, None, None, ,  
02/09/2018 13:33, 1, 76, -5 ,7, 8, W, None, None, ,  
02/09/2018 13:24, 1, 77, -5 ,7, 7, W, None, None, ,  
02/09/2018 13:23, 1, 77, -5 ,6, 7, W, None, None, ,  
02/09/2018 13:13, 1, 77, -5 ,6, 8, W, None, None, ,  
02/09/2018 13:09, 0, 77, -5 ,6, 8, W, None, None, ,  
02/09/2018 13:03, 0, 77, -5 ,7, 8, W, None, None, ,  
02/09/2018 12:54, 0, 75, -6 ,6, 6, W, None, None, ,  
02/09/2018 12:53, 0, 75, -6 ,6, 6, W, None, None, ,  
02/09/2018 12:43, 1, 75, -6 ,5, 6, W, None, None, ,  
02/09/2018 12:39, 1, 74, -6 ,4, 5, W, None, None, ,  
02/09/2018 12:33, 1, 73, -6 ,4, 5, W, None, None, ,  
02/09/2018 12:24, 1, 70, -6 ,2, 3, E, None, None, ,  
02/09/2018 12:23, 1, 71, -6 ,2, 3, E, None, None, ,  
02/09/2018 12:13, 4, 64, -6 ,1, 2, E, Yes, , ,  
02/09/2018 12:09, 3, 63, -7 ,0, 1, E, Yes, , ,  
02/09/2018 12:03, 4, 65, -5 ,0, 1, E, Yes, , ,  
02/09/2018 11:54, 3, 65, -6 ,0, 0, E, Yes, , ,  
02/09/2018 11:53, 3, 65, -6 ,0, 0, E, Yes, , ,  
02/09/2018 11:43, 3, 67, -6 ,0, 1, E, Yes, , ,  
02/09/2018 11:39, 2, 70, -6 ,0, 2, E, Yes, , ,  
02/09/2018 11:33, 1, 71, -7 ,1, 2, E, None, None, ,  
02/09/2018 11:24, 1, 72, -6 ,0, 3, E, Yes, , ,  
02/09/2018 11:23, 1, 72, -6 ,0, 3, E, Yes, , ,  
02/09/2018 11:13, 0, 75, -6 ,2, 4, E, Yes, , ,  
02/09/2018 11:09, 0, 76, -6 ,3, 4, E, Yes, , ,  
02/09/2018 11:03, 0, 76, -6 ,3, 4, E, Yes, , ,  
02/09/2018 10:54, -1, 75, -7 ,2, 4, NE, Yes, , ,  
02/09/2018 10:53, -1, 75, -7 ,2, 4, NE, Yes, , ,  
02/09/2018 10:43, -1, 76, -7 ,3, 5, NE, Yes, , ,  
02/09/2018 10:39, -1, 76, -7 ,4, 5, NE, Yes, , ,  
02/09/2018 10:32, -1, 76, -7 ,4, 4, NE, Yes, , ,  
02/09/2018 10:24, -1, 75, -7 ,4, 4, NE, Yes, , ,  
02/09/2018 10:22, -1, 75, -7 ,4, 4, NE, Yes, , ,  
02/09/2018 10:12, -1, 78, -7 ,4, 6, NE, None, None, ,  
02/09/2018 10:09, -1, 78, -7 ,4, 6, NE, Yes, , ,  
02/09/2018 10:02, -2, 78, -7 ,6, 6, NE, Yes, , ,  
02/09/2018 09:54, -2, 78, -7 ,5, 6, NE, Yes, , ,  
02/09/2018 09:52, -2, 78, -7 ,5, 6, NE, Yes, , ,  
02/09/2018 09:42, -2, 78, -7 ,4, 6, NE, Yes, , ,  
02/09/2018 09:39, -2, 78, -7 ,6, 6, NE, None, None, ,  
02/09/2018 09:32, -2, 79, -7 ,6, 6, NE, None, None, ,  
02/09/2018 09:24, -2, 79, -7 ,6, 6, NE, Yes, , ,  
02/09/2018 09:22, -2, 80, -6 ,6, 6, NE, Yes, , ,  
02/09/2018 09:12, -2, 81, -6 ,6, 6, NE, Yes, , ,  
02/09/2018 09:09, -2, 82, -6 ,5, 7, NE, Yes, , ,  
02/09/2018 09:02, -2, 82, -6 ,6, 6, NE, Yes, , ,  
02/09/2018 08:54, -2, 82, -6 ,6, 7, NE, Yes, , ,  
02/09/2018 08:52, -2, 82, -6 ,6, 7, NE, Yes, , ,  
02/09/2018 08:42, -2, 83, -6 ,6, 6, NE, Yes, , ,  
02/09/2018 08:39, -2, 83, -6 ,4, 6, NE, Yes, , ,  
02/09/2018 08:32, -2, 83, -6 ,4, 6, NE, Yes, , ,  
02/09/2018 08:24, -2, 83, -6 ,4, 7, NE, Yes, , ,  
02/09/2018 08:22, -2, 83, -6 ,6, 7, NE, Yes, , ,  
02/09/2018 08:12, -2, 83, -6 ,7, 9, NE, Yes, , ,  
02/09/2018 08:09, -2, 83, -6 ,7, 9, NE, Yes, , ,  
02/09/2018 08:02, -2, 84, -6 ,6, 7, NE, None, None, ,  
02/09/2018 07:54, -2, 84, -6 ,4, 6, NE, None, None, ,  
02/09/2018 07:52, -2, 84, -6 ,4, 7, NE, Yes, , ,  
02/09/2018 07:42, -2, 84, -6 ,6, 7, NE, None, None, ,  
02/09/2018 07:39, -2, 84, -6 ,4, 6, NE, Yes, , ,  
02/09/2018 07:31, -2, 84, -6 ,6, 7, NE, None, None, ,  
02/09/2018 07:24, -2, 84, -6 ,4, 9, NE, Yes, , ,  
02/09/2018 07:21, -2, 84, -6 ,5, 11, NE, Yes, , ,  
02/09/2018 07:11, -2, 84, -6 ,11, 12, NE, None, None, ,  
02/09/2018 07:09, -2, 84, -6 ,11, 12, NE, None, None, ,  
02/09/2018 07:01, -2, 84, -6 ,9, 12, NE, None, None, ,  
02/09/2018 06:54, -2, 84, -6 ,11, 12, NE, None, None, ,  
02/09/2018 06:51, -2, 85, -6 ,11, 12, NE, None, None, ,  
02/09/2018 06:41, -2, 85, -6 ,9, 10, NE, None, None, ,  
02/09/2018 06:39, -2, 85, -5 ,9, 10, NE, None, None, ,  
02/09/2018 06:31, -2, 85, -6 ,9, 11, NE, None, None, ,  
02/09/2018 06:24, -2, 85, -5 ,9, 10, NE, None, None, ,  
02/09/2018 06:21, -2, 85, -5 ,9, 10, NE, None, None, ,  
02/09/2018 06:11, -2, 85, -6 ,7, 7, NE, None, None, ,  
02/09/2018 06:09, -2, 85, -6 ,6, 9, NE, None, None, ,  
02/09/2018 06:01, -3, 85, -6 ,8, 9, NE, None, None, ,  
02/09/2018 05:54, -3, 84, -6 ,7, 9, NE, None, None, ,  
02/09/2018 05:51, -3, 84, -6 ,7, 9, NE, None, None, ,  
02/09/2018 05:41, -2, 85, -6 ,8, 9, N, None, None, ,  
02/09/2018 05:39, -2, 85, -6 ,7, 9, N, None, None, ,  
02/09/2018 05:31, -3, 84, -6 ,8, 9, N, None, None, ,  
02/09/2018 05:24, -2, 85, -6 ,7, 9, N, None, None, ,  
02/09/2018 05:21, -2, 85, -6 ,9, 10, N, None, None, ,  
02/09/2018 05:11, -3, 84, -6 ,9, 11, N, None, None, ,  
02/09/2018 05:09, -3, 84, -6 ,9, 11, N, None, None, ,  
02/09/2018 05:01, -3, 84, -6 ,9, 12, N, None, None, ,  
02/09/2018 04:54, -3, 84, -6 ,10, 12, N, None, None, ,  
02/09/2018 04:51, -3, 84, -6 ,10, 12, N, None, None, ,  
02/09/2018 04:41, -3, 84, -6 ,7, 10, N, None, None, ,  
02/09/2018 04:39, -3, 84, -6 ,7, 10, N, None, None, ,  
02/09/2018 04:30, -2, 84, -6 ,7, 7, N, None, None, ,  
02/09/2018 04:24, -2, 85, -5 ,1, 3, N, None, None, ,  
02/09/2018 04:20, -2, 85, -6 ,0, 2, E, None, None, ,  
02/09/2018 04:10, -2, 85, -6 ,2, 2, E, None, None, ,  
02/09/2018 04:09, -2, 85, -6 ,2, 2, E, None, None, ,  
02/09/2018 04:00, -2, 85, -6 ,2, 3, E, None, None, ,  
02/09/2018 03:54, -3, 85, -6 ,2, 4, E, None, None, ,  
02/09/2018 03:50, -3, 85, -6 ,3, 4, E, None, None, ,  
02/09/2018 03:40, -3, 84, -7 ,2, 3, E, None, None, ,  
02/09/2018 03:39, -3, 84, -7 ,2, 3, E, None, None, ,  
02/09/2018 03:30, -4, 85, -7 ,2, 2, E, None, None, ,  
02/09/2018 03:24, -4, 84, -8 ,0, 1, S, None, None, ,  
02/09/2018 03:20, -5, 84, -8 ,0, 0, S, Yes, , ,  
02/09/2018 03:10, -5, 84, -8 ,0, 1, S, None, None, ,  
02/09/2018 03:09, -5, 84, -8 ,0, 1, S, None, None, ,  
02/09/2018 03:00, -5, 84, -8 ,1, 1, S, None, None, ,  
02/09/2018 02:54, -5, 83, -9 ,0, 6, S, Yes, , ,  
02/09/2018 02:50, -5, 83, -9 ,1, 6, S, Yes, , ,  
02/09/2018 02:40, -5, 85, -8 ,2, 4, SE, Yes, , ,  
02/09/2018 02:39, -5, 85, -8 ,3, 4, SE, None, None, ,  
02/09/2018 02:30, -6, 83, -10 ,0, 2, S, Yes, , ,  
02/09/2018 02:24, -6, 83, -10 ,1, 4, S, Yes, , ,  
02/09/2018 02:20, -7, 82, -11 ,1, 4, S, Yes, , ,  
02/09/2018 02:10, -6, 83, -9 ,3, 4, SE, Yes, , ,  
02/09/2018 02:09, -6, 83, -9 ,3, 4, SE, Yes, , ,  
02/09/2018 02:00, -6, 82, -10 ,5, 9, SE, None, None, ,  
02/09/2018 01:54, -4, 84, -8 ,6, 9, E, None, None, ,  
02/09/2018 01:50, -4, 84, -8 ,9, 9, E, None, None, ,  
02/09/2018 01:40, -4, 85, -7 ,8, 9, E, None, None, ,  
02/09/2018 01:39, -4, 85, -7 ,8, 9, E, None, None, ,  
02/09/2018 01:29, -3, 87, -6 ,5, 7, E, None, None, ,  
02/09/2018 01:24, -4, 87, -7 ,6, 7, E, None, None, ,  
02/09/2018 01:19, -6, 85, -9 ,6, 7, E, None, None, ,  
02/09/2018 01:09, -5, 85, -8 ,6, 6, SE, None, None, ,  
02/09/2018 01:09, -5, 85, -8 ,5, 6, SE, None, None, ,  
02/09/2018 00:59, -5, 84, -9 ,1, 2, SE, None, None, ,  
02/09/2018 00:54, -5, 83, -9 ,0, 1, SE, None, None, ,  
02/09/2018 00:49, -4, 85, -8 ,0, 2, SE, None, None, ,  
02/09/2018 00:39, -5, 85, -8 ,2, 3, SE, None, None, ,  
02/09/2018 00:39, -5, 85, -8 ,3, 3, SE, None, None, ,  
02/09/2018 00:29, -4, 83, -8 ,1, 2, W, None, None, ,  
02/09/2018 00:24, -3, 86, -6 ,1, 2, NW, None, None, ,  
02/09/2018 00:19, -3, 84, -7 ,0, 2, N, None, None, ,  
02/09/2018 00:09, -2, 87, -5 ,0, 0, N, None, None, ,  
02/09/2018 00:09, -2, 87, -5 ,0, 0, N, None, None, ,  
02/08/2018 23:59, -2, 85, -5 ,1, 2, N, None, None, ,  
02/08/2018 23:54, -2, 86, -5 ,1, 2, N, None, None, ,  
02/08/2018 23:49, -3, 83, -7 ,1, 2, NW, None, None, ,  
02/08/2018 23:39, -1, 87, -4 ,2, 5, NW, None, None, ,  
02/08/2018 23:39, -1, 87, -4 ,2, 5, NW, None, None, ,  
02/08/2018 23:29, -1, 82, -5 ,2, 9, NW, None, None, ,  
02/08/2018 23:24, 0, 83, -4 ,1, 12, N, Yes, , ,  
02/08/2018 23:19, 0, 84, -3 ,9, 12, N, None, None, ,  
02/08/2018 23:09, 1, 84, -3 ,11, 13, N, None, None, ,  
02/08/2018 23:09, 1, 84, -3 ,11, 13, N, None, None, ,  
02/08/2018 22:59, 1, 84, -3 ,11, 12, N, None, None, ,  
02/08/2018 22:54, 1, 84, -3 ,9, 10, N, Yes, , ,  
02/08/2018 22:49, 1, 83, -3 ,7, 9, N, Yes, , ,  
02/08/2018 22:39, 1, 84, -3 ,7, 9, N, Yes, , ,  
02/08/2018 22:39, 1, 84, -3 ,7, 8, N, Yes, , ,  
02/08/2018 22:28, 1, 84, -3 ,2, 3, N, Yes, , ,  
02/08/2018 22:24, 1, 84, -3 ,0, 1, N, Yes, , ,  
02/08/2018 22:18, 1, 84, -3 ,0, 4, N, Yes, , ,  
02/08/2018 22:09, 1, 84, -3 ,4, 11, N, Yes, , ,  
02/08/2018 22:08, 1, 84, -3 ,6, 11, N, Yes, , ,  
02/08/2018 21:58, 1, 86, -2 ,6, 6, N, Yes, , ,  
02/08/2018 21:54, 1, 86, -2 ,1, 3, NW, Yes, , ,  
02/08/2018 21:48, 1, 86, -2 ,0, 5, NW, Yes, , ,  
02/08/2018 21:39, 2, 86, -2 ,1, 4, NW, Yes, , ,  
02/08/2018 21:38, 2, 86, -2 ,0, 3, NW, Yes, , ,  
02/08/2018 21:28, 1, 86, -2 ,0, 3, NW, Yes, , ,  
02/08/2018 21:24, 1, 85, -2 ,2, 3, NW, Yes, , ,  
02/08/2018 21:18, 1, 85, -2 ,1, 3, E, Yes, , ,  
02/08/2018 21:09, 1, 86, -2 ,1, 2, E, Yes, , ,  
02/08/2018 21:08, 1, 86, -2 ,0, 2, NE, None, None, ,  
02/08/2018 20:58, 1, 83, -3 ,0, 9, E, None, None, ,  
02/08/2018 20:54, 2, 83, -2 ,2, 11, NE, None, None, ,  
02/08/2018 20:48, 2, 85, -1 ,7, 13, NE, None, None, ,  
02/08/2018 20:39, 2, 85, -1 ,12, 15, NE, None, None, ,  
02/08/2018 20:38, 2, 84, -1 ,11, 15, NE, None, None, ,  
02/08/2018 20:28, 2, 84, -1 ,13, 17, NE, None, None, ,  
02/08/2018 20:24, 2, 85, -1 ,14, 17, NE, None, None, ,  
02/08/2018 20:18, 3, 84, -1 ,13, 17, NE, None, None, ,  
02/08/2018 20:09, 3, 85, 0 ,13, 17, NE, None, None, ,  
02/08/2018 20:08, 3, 84, 0 ,14, 17, NE, None, None, ,  
02/08/2018 19:58, 4, 85, 1 ,16, 17, NE, None, None, ,  
02/08/2018 19:55, 4, 84, 1 ,14, 17, NE, None, None, ,  
02/08/2018 19:48, 5, 84, 1 ,16, 18, NE, None, None, ,  
02/08/2018 19:39, 5, 84, 1 ,16, 19, NE, None, None, ,  
02/08/2018 19:37, 5, 83, 1 ,16, 19, NE, None, None, ,  
02/08/2018 19:27, 6, 84, 2 ,13, 17, NE, Yes, , ,  
02/08/2018 19:24, 6, 84, 2 ,15, 17, NE, None, None, ,  
02/08/2018 19:17, 6, 83, 2 ,15, 17, NE, None, None, ,  
02/08/2018 19:09, 6, 85, 2 ,13, 19, NE, None, None, ,  
02/08/2018 19:07, 6, 85, 2 ,14, 19, NE, None, None, ,  
02/08/2018 18:57, 6, 83, 2 ,17, 22, NE, None, None, ,  
02/08/2018 18:54, 6, 83, 2 ,19, 22, NE, None, None, ,  
02/08/2018 18:47, 6, 84, 2 ,16, 20, NE, None, None, ,  
02/08/2018 18:39, 6, 84, 2 ,16, 20, NE, None, None, ,  
02/08/2018 18:37, 6, 84, 2 ,17, 20, NE, None, None, ,  
02/08/2018 18:27, 6, 83, 2 ,17, 19, NE, None, None, ,  
02/08/2018 18:24, 6, 83, 2 ,16, 21, NE, None, None, ,  
02/08/2018 18:17, 6, 84, 2 ,19, 22, NE, None, None, ,  
02/08/2018 18:09, 6, 84, 2 ,18, 22, NE, None, None, ,  
02/08/2018 18:07, 6, 84, 2 ,19, 22, NE, None, None, ,  
Change End Date:

Copyright © 1998-2015 Vaisala, Inc.
All Rights Reserved
Send comments about the data to:
SCAN Web ® is a registered trademark of Vaisala, Inc.
SCAN Web Version 6.0